[[{"header":{"parameterUnit":"m.s-1","parameterCategory":1,"la1":30.2991,"la2":30.254,"lo1":-89.0895,"lo2":-89.0444,"dy":0.0017,"dx":0.0017,"nx":28,"ny":28,"refTime":"2023-08-27T09:00:00:Z","depth":0,"parameterNumber":2,"parameterNumberName":"U-component_of_WINDS"},"data":[0,0,0,0,0,0,0,0,0,0,0,0,0,0,0,0,0,0,0,0,0,0,0,0,0,0,0,0,0,0,0,0,0,0,0,0,0,0,0,0,0,0,0,0,0,0,0,0,0,0,0,0,0,0,0,0,0,0,1.6782,1.6782,0,1.6854,1.6855,1.6855,1.6838,1.6837,1.6835,1.6834,1.6906,1.691,1.6913,0,0,0,0,0,0,0,0,0,0,0,0,0,1.6627,1.663,1.6782,1.6783,1.6783,1.6854,1.6855,1.6856,1.6838,1.6836,1.6835,1.6833,1.6905,1.6909,1.6913,0,0,0,0,0,0,0,0,0,0,0,0,0,1.6696,1.6631,1.6781,1.6783,1.6784,1.6853,1.6855,1.6856,1.6839,1.6836,1.6834,1.6832,1.6904,1.6909,1.6914,1.6985,0,0,1.6928,1.693,0,0,0,0,0,0,0,0,1.6692,1.6702,1.6782,1.6783,1.6784,1.6835,1.6827,1.6899,1.6839,1.6818,1.6834,1.6831,1.6884,1.6891,1.6909,1.6989,1.6992,1.6929,1.6932,1.6934,1.6935,0,0,0,0,0,0,0,1.6687,1.6698,1.681,1.6783,1.6785,1.678,1.6787,1.684,1.6862,1.682,1.6818,1.6827,1.6884,1.6904,1.691,1.6993,1.6929,1.6933,1.6936,1.6938,1.7133,1.7135,0,0,0,0,0,0,1.6682,1.6695,1.6808,1.6812,1.6732,1.6784,1.6793,1.6821,1.6861,1.6865,1.6829,1.6826,1.6897,1.6905,1.6913,1.6997,1.6934,1.6938,1.6941,1.713,1.7133,1.7136,0,0,0,0,0,0,1.6678,1.6692,1.6805,1.6753,1.6767,1.6789,1.6821,1.6823,1.6843,1.6868,1.6872,1.6845,1.6895,1.6906,1.6967,1.6999,1.6941,1.6945,1.7128,1.7131,1.7134,1.7168,0,0,0,0,0,0,1.6674,1.6691,1.6719,1.6754,1.677,1.6859,1.6823,1.6826,1.6851,1.6848,1.6884,1.6888,1.6895,1.696,1.6972,1.7005,1.6949,1.7125,1.7129,1.7133,1.7164,1.7172,1.7179,0,0,0,0,0,1.6669,1.6726,1.672,1.6734,1.6806,1.6861,1.687,1.6876,1.6854,1.6882,1.6898,1.6887,1.6994,1.6966,1.6979,1.7015,1.7123,1.7128,1.7133,1.7161,1.7171,1.7179,0,0,0,0,0,0,1.6694,1.673,1.6725,1.6795,1.6825,1.6857,1.6893,1.6887,1.6923,1.6918,1.6924,1.6933,1.6994,1.7011,1.6979,1.7085,1.7055,1.7063,1.7072,1.7081,1.7089,1.7083,1.6953,0,0,0,0,0,1.6708,1.675,1.6779,1.6838,1.6854,1.6871,1.6895,1.6897,1.6928,1.694,1.6961,1.6991,1.7031,1.7058,1.7096,1.7167,1.7173,1.7198,1.7205,1.7211,1.7218,1.7254,1.7265,1.7152,1.7152,1.7152,0,0,1.6736,1.6762,1.6788,1.6844,1.6867,1.691,1.6881,1.6928,1.6959,1.6947,1.7006,1.7022,1.7056,1.7121,1.7151,1.7137,1.725,1.7218,1.7222,1.7225,1.726,1.7271,1.728,1.7156,1.7155,1.7155,0,0,1.681,1.6834,1.6885,1.6909,1.6944,1.6955,1.6967,1.7001,1.7011,1.707,1.7062,1.7099,1.7168,1.7192,1.7213,1.7295,1.7286,1.7308,1.7346,1.7382,1.739,1.7398,1.7425,1.7435,1.7314,1.7314,1.7314,0,1.6841,1.6905,1.6912,1.6959,1.6983,1.6975,1.7025,1.7048,1.7094,1.7111,1.7094,1.718,1.7203,1.7273,1.7292,1.7311,1.7323,1.7303,1.7389,1.7397,1.7404,1.743,1.744,1.7316,1.7316,1.7316,1.7316,0,1.694,1.6985,1.7022,1.7066,1.7095,1.7144,1.7156,1.7185,1.7184,1.7197,1.7256,1.7282,1.7325,1.7342,1.7343,1.7412,1.7402,1.7387,1.7357,1.7417,1.7441,1.7451,1.732,1.7319,1.7318,1.7318,0,0,1.7031,1.7078,1.7091,1.7111,1.7149,1.7183,1.7231,1.7273,1.7296,1.7329,1.7367,1.7426,1.7413,1.7437,1.744,1.7471,1.7532,1.7453,1.7453,1.7464,1.7607,1.7616,1.7628,1.7527,1.7528,1.753,1.7603,0,1.7106,1.719,1.7197,1.7273,1.7313,1.7305,1.7347,1.7374,1.7387,1.7422,1.7436,1.7477,1.7457,1.7471,1.7502,1.7518,1.756,1.7513,1.7561,1.7563,1.7551,1.7641,1.7651,1.7719,1.7613,1.7615,1.7616,0,1.7205,1.7239,1.7319,1.735,1.7367,1.7404,1.7442,1.7477,1.7508,1.7515,1.7541,1.754,1.7587,1.7557,1.7622,1.759,1.761,1.7621,1.7623,1.7626,1.7592,1.7644,1.7741,1.775,1.7631,1.763,1.7629,0,1.726,1.7327,1.7382,1.7399,1.7438,1.7464,1.7481,1.751,1.7534,1.7568,1.7583,1.7622,1.7643,1.7672,1.7681,1.7658,1.7745,1.7716,1.775,1.775,1.7767,1.7766,1.7867,1.7784,1.7784,1.7784,1.7784,0,1.7342,1.739,1.7407,1.7441,1.7495,1.7502,1.7555,1.757,1.7596,1.7632,1.7628,1.7662,1.7672,1.7708,1.7715,1.7766,1.7776,1.7782,1.7783,1.7781,1.778,1.7793,1.7788,1.7787,1.7786,1.7786,1.7785,0,1.7411,1.7425,1.7485,1.7517,1.7526,1.7563,1.759,1.7622,1.7634,1.768,1.7691,1.771,1.7751,1.7763,1.7813,1.7818,1.7877,1.7875,1.7867,1.7866,1.79,1.7895,1.8011,1.8025,1.7935,1.7936,1.7937,0,1.7462,1.7498,1.7534,1.7558,1.7576,1.7615,1.764,1.7648,1.7674,1.7711,1.7738,1.7779,1.7812,1.7878,1.7896,1.7934,1.7931,1.7969,1.7936,1.7933,1.7929,1.7925,1.7928,1.7974,1.7975,1.7976,1.7976,0,1.7549,1.7553,1.7589,1.7627,1.7657,1.7687,1.7717,1.7736,1.7749,1.7778,1.782,1.7846,1.7896,1.7936,1.7974,1.7991,1.7985,1.7987,1.7996,1.7994,1.7986,1.7989,1.7881,1.7983,1.7983,1.7982,1.7982,1.7982,1.7609,1.764,1.767,1.7709,1.7732,1.7759,1.7791,1.7807,1.7842,1.7884,1.7887,1.7932,1.796,1.8011,1.803,1.8065,1.8053,1.8068,1.8071,1.8074,1.8076,1.7983,1.8072,1.8072,1.8072,1.8071,1.8071,0,1.7693,1.7712,1.7748,1.7789,1.782,1.7813,1.7845,1.7871,1.791,1.7938,1.797,1.8018,1.8056,1.8077,1.8115,1.8139,1.8137,1.8148,1.8146,1.8149,1.8085,1.8071,1.8149,1.8149,1.8149,1.8149,1.8149,1.8149,1.7741,1.7793,1.7801,1.7865,1.7883,1.7927,1.7946,1.797,1.7992,1.8045,1.8077,1.8091,1.8115,1.8154,1.8189,1.8194,1.8207,1.822,1.8223,1.8162,1.8154,1.8146,1.8134,1.8223,1.8223,1.8284,1.8285,1.8285]},{"header":{"parameterUnit":"m.s-1","parameterCategory":1,"la1":30.2991,"la2":30.254,"lo1":-89.0895,"lo2":-89.0444,"dy":0.0017,"dx":0.0017,"nx":28,"ny":28,"refTime":"2023-08-27T09:00:00:Z","depth":0,"parameterNumber":3,"parameterNumberName":"V-component_of_WINDS"},"data":[0,0,0,0,0,0,0,0,0,0,0,0,0,0,0,0,0,0,0,0,0,0,0,0,0,0,0,0,0,0,0,0,0,0,0,0,0,0,0,0,0,0,0,0,0,0,0,0,0,0,0,0,0,0,0,0,0,0,3.1225,3.1226,0,3.1315,3.1316,3.1317,3.1299,3.1298,3.1296,3.1295,3.1382,3.1385,3.1389,0,0,0,0,0,0,0,0,0,0,0,0,0,3.1033,3.1037,3.1225,3.1226,3.1227,3.1314,3.1316,3.1317,3.13,3.1298,3.1296,3.1294,3.138,3.1385,3.1389,0,0,0,0,0,0,0,0,0,0,0,0,0,3.1119,3.1038,3.1225,3.1229,3.1231,3.1314,3.1316,3.1317,3.13,3.1298,3.1295,3.1293,3.1379,3.1384,3.139,3.1473,0,0,3.1407,3.141,0,0,0,0,0,0,0,0,3.1114,3.1126,3.1227,3.1229,3.1231,3.1294,3.128,3.1369,3.1301,3.1274,3.1295,3.1292,3.1354,3.1361,3.1383,3.1477,3.1481,3.1408,3.1411,3.1414,3.1415,0,0,0,0,0,0,0,3.1108,3.1122,3.126,3.1229,3.1231,3.1225,3.1234,3.1297,3.1326,3.1276,3.1275,3.1286,3.1354,3.1378,3.1385,3.1482,3.1408,3.1413,3.1416,3.1419,3.1647,3.165,0,0,0,0,0,0,3.1101,3.1117,3.1257,3.1263,3.1165,3.123,3.1241,3.1276,3.1325,3.1331,3.1288,3.1285,3.1369,3.1379,3.1388,3.1488,3.1414,3.1419,3.1422,3.1644,3.1648,3.165,0,0,0,0,0,0,3.1097,3.1114,3.1254,3.119,3.1207,3.1236,3.1275,3.1279,3.1302,3.1334,3.1339,3.1307,3.1368,3.138,3.1452,3.1491,3.1422,3.1427,3.1641,3.1645,3.1649,3.1689,0,0,0,0,0,0,3.1092,3.1113,3.1146,3.1191,3.1211,3.1318,3.1278,3.1282,3.1313,3.131,3.1354,3.1359,3.1367,3.1444,3.1458,3.1497,3.1431,3.1638,3.1643,3.1648,3.1684,3.1694,3.1702,0,0,0,0,0,3.1085,3.1153,3.1148,3.1165,3.1253,3.132,3.1331,3.1341,3.1316,3.1349,3.1369,3.1357,3.1484,3.1451,3.1467,3.1509,3.1635,3.1642,3.1647,3.168,3.1692,3.1701,0,0,0,0,0,0,3.111,3.1159,3.1154,3.1238,3.1276,3.1317,3.1359,3.1353,3.1397,3.1392,3.1401,3.1411,3.1483,3.1503,3.1466,3.1591,3.1556,3.1566,3.1576,3.1587,3.1596,3.1589,3.1436,0,0,0,0,0,3.1126,3.1178,3.1217,3.1288,3.1307,3.133,3.1359,3.1364,3.1402,3.1417,3.1443,3.1479,3.1526,3.1558,3.1604,3.1687,3.1695,3.1723,3.1732,3.1739,3.1747,3.1791,3.1803,3.167,3.167,3.167,0,0,3.1158,3.1191,3.1223,3.1294,3.1323,3.1375,3.1343,3.14,3.1438,3.1425,3.1495,3.1515,3.1555,3.1633,3.1668,3.1652,3.1786,3.1747,3.1752,3.1756,3.1798,3.1811,3.1822,3.1674,3.1673,3.1673,0,0,3.1244,3.1275,3.1337,3.1367,3.1412,3.1427,3.1442,3.1485,3.1498,3.1568,3.1559,3.1604,3.1687,3.1716,3.1741,3.1837,3.1827,3.1852,3.1897,3.194,3.1951,3.196,3.1993,3.2005,3.1859,3.1859,3.1859,0,3.1278,3.1358,3.1368,3.1426,3.1457,3.1449,3.151,3.1539,3.1596,3.1616,3.1597,3.17,3.1727,3.1811,3.1834,3.1856,3.1871,3.1846,3.1949,3.1958,3.1967,3.1998,3.2011,3.1862,3.1862,3.1861,3.1861,0,3.1396,3.1452,3.1496,3.1553,3.1589,3.1648,3.1666,3.17,3.1701,3.1717,3.1788,3.182,3.1872,3.1892,3.1893,3.1976,3.1964,3.1947,3.1912,3.1982,3.2012,3.2024,3.1866,3.1865,3.1864,3.1863,0,0,3.15,3.1563,3.1579,3.1604,3.1653,3.1695,3.1753,3.1806,3.1834,3.1874,3.1921,3.1991,3.1976,3.2005,3.2009,3.2047,3.2119,3.2025,3.2026,3.204,3.221,3.2223,3.2237,3.2113,3.2115,3.2117,3.2207,0,3.159,3.1694,3.1705,3.1798,3.1848,3.1841,3.1891,3.1926,3.1942,3.1986,3.2003,3.2053,3.2029,3.2046,3.2083,3.2102,3.2153,3.2096,3.2156,3.2158,3.2145,3.2252,3.2266,3.2349,3.2218,3.222,3.2222,0,3.1708,3.1752,3.1851,3.1892,3.1913,3.1959,3.2007,3.2049,3.2088,3.2097,3.2129,3.2128,3.2186,3.2149,3.2228,3.2189,3.2214,3.2227,3.223,3.2235,3.2194,3.226,3.2375,3.2388,3.2241,3.2239,3.2238,0,3.1773,3.1857,3.1926,3.1948,3.1999,3.203,3.2052,3.2088,3.2119,3.216,3.218,3.2227,3.2252,3.2288,3.2299,3.2272,3.2377,3.2341,3.2385,3.2384,3.2407,3.2405,3.2527,3.2424,3.2424,3.2424,3.2423,0,3.1871,3.1931,3.1956,3.1998,3.2065,3.2076,3.2141,3.2161,3.2193,3.2238,3.2234,3.2276,3.2288,3.2332,3.234,3.2403,3.2415,3.2423,3.2424,3.2423,3.2422,3.2439,3.2433,3.2427,3.2426,3.2426,3.2425,0,3.1954,3.1974,3.2049,3.209,3.2102,3.2149,3.2184,3.2224,3.2239,3.2296,3.231,3.2334,3.2385,3.24,3.246,3.2466,3.254,3.2536,3.2528,3.2527,3.257,3.2565,3.2707,3.2725,3.261,3.2611,3.2612,0,3.2015,3.2062,3.2109,3.2139,3.2163,3.2212,3.2244,3.2256,3.2288,3.2335,3.2369,3.2419,3.2461,3.2542,3.2563,3.2609,3.2606,3.2653,3.2613,3.261,3.2606,3.2603,3.2607,3.266,3.2661,3.2662,3.2663,0,3.2121,3.2129,3.2175,3.2225,3.2262,3.2301,3.2339,3.2364,3.2381,3.2417,3.247,3.2502,3.2565,3.2614,3.2661,3.2681,3.2675,3.2675,3.2688,3.2686,3.2679,3.2683,3.2547,3.2672,3.2671,3.267,3.267,3.267,3.2195,3.2235,3.2275,3.2326,3.2356,3.2391,3.243,3.2451,3.2496,3.2549,3.2553,3.261,3.2645,3.2708,3.2731,3.2774,3.276,3.2778,3.2783,3.2787,3.279,3.2673,3.2782,3.2782,3.2782,3.2782,3.2782,0,3.23,3.2325,3.2372,3.2426,3.2465,3.2457,3.2498,3.2531,3.2582,3.2617,3.2658,3.2718,3.2766,3.2791,3.2839,3.2868,3.2866,3.288,3.2878,3.2882,3.28,3.2784,3.2881,3.2881,3.2881,3.2881,3.2881,3.2881,3.2359,3.2427,3.2439,3.252,3.2544,3.2602,3.2625,3.2657,3.2685,3.2752,3.2793,3.281,3.284,3.289,3.2933,3.2939,3.2956,3.2972,3.2976,3.2898,3.2888,3.2878,3.2864,3.2975,3.2976,3.3054,3.3055,3.3056]}]]